Location: downtown San Diego
(32.7310°N, 117.1990°W)
Time: 10:09:28
(UTC-07:00)

Cosmos 371 Rocket - Pass Details

Date: 12 July 2018
Orbit: 684 x 699 km, 74.0° (Epoch: 20 September)

Event Time Altitude Azimuth Distance (km) Brightness Sun altitude
Rises 20:35:03 0° 347° (NNW) 3,080 7.4 -7.5°
Reaches altitude 10° 20:37:24 10° 351° (N) 2,161 6.5 -7.9°
Maximum altitude 20:42:14 61° 72° (ENE) 789 3.4 -8.8°
Drops below altitude 10° 20:47:02 10° 153° (SSE) 2,152 5.3 -9.6°
Enters shadow 20:47:21 - 153° (SSE) 2,276 5.4 -9.7°
